TimeMST,TemperatureF,Dew PointF,Humidity,Sea Level PressureIn,VisibilityMPH,Wind Direction,Wind SpeedMPH,Gust SpeedMPH,PrecipitationIn,Events,Conditions,WindDirDegrees,DateUTC
12:51 AM,75.9,16.0,10,29.55,10.0,SSW,17.3,-,N/A,,Clear,200,2013-04-30 07:51:00
1:51 AM,71.1,18.0,13,29.55,10.0,South,13.8,-,N/A,,Clear,180,2013-04-30 08:51:00
2:51 AM,66.9,18.0,15,29.55,10.0,South,12.7,-,N/A,,Unknown,180,2013-04-30 09:51:00
3:51 AM,66.0,19.9,17,29.56,10.0,South,11.5,-,N/A,,Clear,170,2013-04-30 10:51:00
4:51 AM,64.0,21.0,19,29.56,10.0,SSE,10.4,-,N/A,,Clear,160,2013-04-30 11:51:00
5:51 AM,63.0,19.0,18,29.57,10.0,South,9.2,-,N/A,,Clear,180,2013-04-30 12:51:00
6:51 AM,64.9,19.0,17,29.58,10.0,Calm,Calm,-,N/A,,Clear,0,2013-04-30 13:51:00
7:51 AM,78.1,18.0,10,29.56,10.0,SW,10.4,-,N/A,,Clear,220,2013-04-30 14:51:00
8:51 AM,81.0,12.9,8,29.56,10.0,SSW,18.4,-,N/A,,Clear,210,2013-04-30 15:51:00
9:51 AM,82.9,14.0,8,29.57,10.0,SW,25.3,33.4,N/A,,Clear,220,2013-04-30 16:51:00
10:51 AM,84.0,15.1,8,29.58,10.0,SW,20.7,28.8,N/A,,Clear,230,2013-04-30 17:51:00
11:51 AM,86.0,15.1,7,29.56,10.0,SSW,25.3,33.4,N/A,,Clear,210,2013-04-30 18:51:00
12:51 PM,88.0,10.9,6,29.55,10.0,SSW,21.9,33.4,N/A,,Clear,210,2013-04-30 19:51:00
1:51 PM,89.1,3.9,4,29.56,10.0,SSW,29.9,42.6,N/A,,Clear,210,2013-04-30 20:51:00
2:51 PM,89.1,10.9,5,29.56,10.0,SSW,27.6,39.1,N/A,,Clear,210,2013-04-30 21:51:00
3:51 PM,89.1,9.0,5,29.54,10.0,SW,20.7,34.5,N/A,,Clear,220,2013-04-30 22:51:00
4:51 PM,87.1,8.1,5,29.53,10.0,SSW,21.9,29.9,N/A,,Clear,200,2013-04-30 23:51:00
5:51 PM,84.0,8.1,6,29.54,10.0,SSW,19.6,34.5,N/A,,Clear,200,2013-05-01 00:51:00
6:51 PM,82.0,8.1,6,29.54,10.0,SSW,18.4,26.5,N/A,,Clear,200,2013-05-01 01:51:00
7:51 PM,79.0,17.1,10,29.54,10.0,South,20.7,26.5,N/A,,Clear,190,2013-05-01 02:51:00
8:51 PM,75.0,16.0,11,29.57,10.0,South,10.4,-,N/A,,Clear,190,2013-05-01 03:51:00
9:51 PM,71.1,16.0,12,29.59,10.0,South,9.2,-,N/A,,Clear,180,2013-05-01 04:51:00
10:51 PM,66.9,18.0,15,29.60,10.0,South,9.2,-,N/A,,Clear,180,2013-05-01 05:51:00
11:51 PM,72.0,21.0,15,29.60,10.0,SSW,16.1,-,N/A,,Clear,210,2013-05-01 06:51:00